Header for Extended Forecast Station List Page

Search by: ID | Name | Date | Parm | Value | Avg | % Avg
Sort by: ID | Name | Date | Parm | Value | Avg | % Avg

Enter search or view all records.

Click on id for station plot
#IDNameDateParmValueAvg% Avg
0LYDM8KOOTENAI-LIBBY DAM10-15-2018INFLOW (KAF)74991282
1LEOI1KOOTENAI-AT LEONIA10-15-2018DISCHARGE (KAF)24331575154
2BFEI1KOOTENAI-AT BONNERS FERRY10-15-2018STAGE (FT)MMM
3FCFM8NF FLATHEAD-NEAR COLUMBIA FALLS10-15-2018DISCHARGE (KAF)10819356
4WGCM8MF FLATHEAD-NEAR WEST GLACIER10-15-2018DISCHARGE (KAF)12216972
5HHWM8SF FLATHEAD-HUNGRY HORSE DAM10-15-2018INFLOW (KAF)13324454
6CFMM8FLATHEAD-AT COLUMBIA FALLS10-15-2018DISCHARGE (KAF)893117976
7DLGM8CLARK FORK-AT DEER LODGE10-15-2018DISCHARGE (KAF)7463118
8DRMM8CLARK FORK-NR DRUMMOND10-15-2018DISCHARGE (KAF)156MM
9RCCM8ROCK CREEK-NEAR CLINTON10-15-2018DISCHARGE (KAF)6349127
10BONM8BLACKFOOT-NEAR BONNER10-15-2018DISCHARGE (KAF)144135106
11ABOM8CLARK FORK-ABOVE MISSOULA10-15-2018DISCHARGE (KAF)377344110
12BITM8BITTERROOT-NEAR MISSOULA10-15-2018DISCHARGE (KAF)16522773
13BELM8CLARK FORK-BELOW MISSOULA10-15-2018DISCHARGE (KAF)54457595
14STRM8ST. REGIS-NEAR ST. REGIS10-15-2018DISCHARGE (KAF)183749
15SRGM8CLARK FORK-AT ST REGIS10-15-2018DISCHARGE (KAF)68975192
16KERM8FLATHEAD-KERR DAM10-15-2018INFLOW (KAF)992148767
17NOXM8CLARK FORK-NOXON RAPIDS DAM10-15-2018INFLOW (KAF)2713347278
18CABI1CLARK FORK-CABINET GORGE DAM10-15-2018INFLOW (KAF)2976362482
19PRTI1PRIEST-NEAR PRIEST RIVER10-15-2018DISCHARGE (KAF)12323752
20ALFW1PEND OREILLE-ALBENI FALLS DAM10-15-2018INFLOW (KAF)3064422273
21HOPI1PEND OREILLE-PEND OREILLE LAKE NR HOPE10-15-2018LAKE ELEVATION (FT)MMM
22COEI1COEUR D ALENE-COEUR D ALENE LAKE10-15-2018INFLOW (KAF)21763634
23SPOW1SPOKANE-AT SPOKANE10-15-2018DISCHARGE (KAF)334MM
24LLKW1SPOKANE-AT LONGLAKE10-15-2018INFLOW (KAF)518109547
25SATI1ST MARIES-NEAR SANTA10-15-2018DISCHARGE (KAF)143146
26SJMI1ST JOE-AT ST MARIES10-15-2018STAGE (FT)MMM
27CIBW1COLUMBIA-AT INTL BOUNDARY10-15-2018DISCHARGE (KAF)18065MM
28LAUW1KETTLE-AT LAURIER10-15-2018DISCHARGE (KAF)8112664
29GCDW1COLUMBIA-GRAND COULEE DAM10-15-2018INFLOW (KAF)1872617246109
30CHJW1COLUMBIA-CHIEF JOSEPH DAM10-15-2018INFLOW (KAF)186512111988
31TONW1OKANOGAN-NEAR TONASKET10-15-2018DISCHARGE (KAF)22028079
32PATW1METHOW-NEAR PATEROS10-15-2018DISCHARGE (KAF)919992
33WELW1COLUMBIA-WELLS DAM10-15-2018INFLOW (KAF)189592148888
34CHDW1CHELAN-LAKE CHELAN DAM10-15-2018INFLOW (KAF)10315666
35RRHW1COLUMBIA-ROCKY REACH DAM10-15-2018INFLOW (KAF)195082197989
36ARDW1ENTIAT-NEAR ARDENVOIR10-15-2018DISCHARGE (KAF)182280
37PESW1WENATCHEE-AT PESHASTIN10-15-2018DISCHARGE (KAF)16129455
38WANW1COLUMBIA-WANAPUM DAM10-15-2018INFLOW (KAF)1968019558101
39PRWW1COLUMBIA-PRIEST RAPIDS DAM10-15-2018INFLOW (KAF)196781987499
40KEDW1YAKIMA-KEECHELUS LAKE10-15-2018INFLOW (KAF)335166
41KADW1KACHESS-KACHESS DAM10-15-2018INFLOW (KAF)294466
42EASW1YAKIMA-AT EASTON10-15-2018DISCHARGE (KAF)546583
43CLUW1CLE ELUM-CLE ELUM LAKE10-15-2018INFLOW (KAF)5310252
44TNAW1TEANAWAY-BELOW FORKS10-15-2018DISCHARGE (KAF)103727
45UMTW1YAKIMA-AT UMTANUM10-15-2018DISCHARGE (KAF)23824099
46BUDW1BUMPING-BUMPING LAKE DAM10-15-2018INFLOW (KAF)183550
47CLFW1NACHES-NEAR CLIFFDEL10-15-2018DISCHARGE (KAF)6210161
48RILW1TIETON-RIMROCK LAKE NEAR RIMROCK10-15-2018INFLOW (KAF)366656
49NACW1NACHES-NEAR NACHES10-15-2018DISCHARGE (KAF)497466
50PARW1YAKIMA-NEAR PARKER10-15-2018DISCHARGE (KAF)37945084
51KIOW1YAKIMA-AT KIONA10-15-2018DISCHARGE (KAF)60168288
52IPDI1HENRYS FORK-ISLAND PARK DAM10-15-2018INFLOW (KAF)8411771
53CHEI1FALL RIVER-NEAR CHESTER10-15-2018DISCHARGE (KAF)118112105
54ANTI1HENRYS FORK-AT ST. ANTHONY10-15-2018DISCHARGE (KAF)342339101
55TEAI1TETON-NEAR ST. ANTHONY10-15-2018DISCHARGE (KAF)9410589
56REXI1HENRYS FORK-AT REXBURG10-15-2018DISCHARGE (KAF)42443099
57JLKW4SNAKE-JACKSON LAKE AT DAM10-15-2018INFLOW (KAF)10511294
58JKSW4SNAKE-NEAR JACKSON10-15-2018DISCHARGE (KAF)337311108
59ALPW4SNAKE-NEAR ALPINE10-15-2018DISCHARGE (KAF)395393101
60PLDI1SF SNAKE-PALISADES DAM10-15-2018INFLOW (KAF)62563498
61HEII1SNAKE-NEAR HEISE10-15-2018DISCHARGE (KAF)622602103
62RIDI1WILLOW CREEK-RIRIE DAM10-15-2018INFLOW (KAF)8899
63SIFI1SNAKE-AB EAGLE ROCK NR IDAHO FALLS10-15-2018DISCHARGE (KAF)866815106
64SHYI1SNAKE-NEAR SHELLEY10-15-2018DISCHARGE (KAF)861800108
65SNAI1SNAKE-AT BLACKFOOT10-15-2018DISCHARGE (KAF)764724106
66BFTI1SNAKE-NEAR BLACKFOOT10-15-2018DISCHARGE (KAF)782780100
67PIHI1PORTNEUF-AT POCATELLO10-15-2018DISCHARGE (KAF)576194
68AFRI1SNAKE-AMERICAN FALLS RESERVOIR10-15-2018INFLOW (KAF)1442146698
69MILI1SNAKE-AT MILNER10-15-2018DISCHARGE (KAF)13954625
70HOTI1BRUNEAU-NEAR HOT SPRINGS10-15-2018DISCHARGE (KAF)172764
71SWAI1SNAKE-BELOW SWAN FALLS10-15-2018DISCHARGE (KAF)1918253976
72HWRI1BIG LOST-AT HOWELL RANCH NEAR CHILLY10-15-2018DISCHARGE (KAF)2921135
73MACI1BIG LOST-MACKAY RESERVOIR NEAR MACKAY10-15-2018INFLOW (KAF)516873
74HALI1BIG WOOD-AT HAILEY10-15-2018DISCHARGE (KAF)4040100
75MAGI1BIG WOOD-MAGIC DAM10-15-2018INFLOW (KAF)252791
76LWRI1LITTLE WOOD-LITTLE WOOD DAM10-15-2018INFLOW (KAF)121580
77OWYO3OWYHEE-OWYHEE DAM10-15-2018INFLOW (KAF)647882
78ARAI1SF BOISE-ANDERSON RANCH DAM10-15-2018INFLOW (KAF)677492
79LUCI1BOISE-LUCKY PEAK DAM10-15-2018INFLOW (KAF)30MM
80BIGI1BOISE-AT GLENWOOD BRIDGE10-15-2018DISCHARGE (KAF)5236147
81PARI1BOISE-NEAR PARMA10-15-2018DISCHARGE (KAF)18120887
82WRMO3MALHEUR-WARM SPRINGS DAM10-15-2018INFLOW (KAF)172088
83BERO3MALHEUR-AGENCY VALLEY DAM10-15-2018INFLOW (KAF)111573
84BULO3BULLY CREEK-BULLY CREEK DAM10-15-2018INFLOW (KAF)22119
85VALO3MALHEUR-NEAR VALE10-15-2018DISCHARGE (KAF)182474
86CSDI1NF PAYETTE-CASCADE DAM10-15-2018INFLOW (KAF)789384
87DEDI1DEADWOOD-NEAR LOWMAN10-15-2018INFLOW (KAF)161987
88EMMI1PAYETTE-NEAR EMMETT10-15-2018DISCHARGE (KAF)27734480
89WSRI1WEISER-NEAR WEISER10-15-2018DISCHARGE (KAF)387153
90WEII1SNAKE-AT WEISER10-15-2018DISCHARGE (KAF)2714358676
91BRNI1SNAKE-BROWNLEE DAM10-15-2018INFLOW (KAF)2886368978
92WHBI1SALMON-AT WHITEBIRD10-15-2018DISCHARGE (KAF)1053107598
93TRYO3GRANDE RONDE-TROY10-15-2018DISCHARGE (KAF)19528369
94ANAW1SNAKE-NEAR ANATONE10-15-2018DISCHARGE (KAF)3932559570
95ORFI1CLEARWATER-AT OROFINO10-15-2018DISCHARGE (KAF)31364649
96DWRI1NF CLEARWATER-DWORSHAK DAM10-15-2018INFLOW (KAF)24549250
97SPDI1CLEARWATER-AT SPALDING10-15-2018DISCHARGE (KAF)748154848
98LGDW1SNAKE-LOWER GRANITE DAM10-15-2018INFLOW (KAF)4679735364
99LGSW1SNAKE-LITTLE GOOSE DAM10-15-2018INFLOW (KAF)4679740763
100LMNW1SNAKE-LOWER MONUMENTAL DAM10-15-2018INFLOW (KAF)4715748163
101IHDW1SNAKE-ICE HARBOR DAM10-15-2018INFLOW (KAF)4715740664
102TCHW1WALLA WALLA-NEAR TOUCHET10-15-2018DISCHARGE (KAF)9110686
103MCDW1COLUMBIA-MCNARY DAM10-15-2018INFLOW (KAF)250462923286
104GIBO3UMATILLA-NEAR GIBBON10-15-2018DISCHARGE (KAF)293191
105PDTO3UMATILLA-AT PENDLETON10-15-2018DISCHARGE (KAF)7672106
106MYKO3MCKAY CREEK-NEAR PILOT ROCK10-15-2018DISCHARGE (KAF)1715110
107UMAO3UMATILLA-NEAR UMATILLA10-15-2018DISCHARGE (KAF)11276148
108MONO3NF JOHN DAY-AT MONUMENT10-15-2018DISCHARGE (KAF)619763
109SERO3JOHN DAY-AT SERVICE CK10-15-2018DISCHARGE (KAF)12918371
110JDAO3COLUMBIA-JOHN DAY DAM10-15-2018INFLOW (KAF)261623012787
111MODO3DESCHUTES-AT MOODY NR BIGGS10-15-2018DISCHARGE (KAF)1310136896
112TDAO3COLUMBIA-THE DALLES DAM10-15-2018INFLOW (KAF)268443356880
113PITW1KLICKITAT-NEAR PITT10-15-2018DISCHARGE (KAF)21726881
114HODO3HOOD-NEAR TUCKER BRIDGE10-15-2018DISCHARGE (KAF)228218105
115UNDW1WHITE SALMON-NEAR UNDERWOOD10-15-2018DISCHARGE (KAF)22622999
116BONO3COLUMBIA-BONNEVILLE DAM10-15-2018INFLOW (KAF)275053562177